Vertical_Velocity
1 0 0 1 1 1 1 1 1 1 1 0 -0 -0 0 -0 -0 -0 -0 0 -0 -0 -1 -2 -2 -2 -2 -1 -1 -0 1 1 1 1 1 -0 -1 -2 -3 -3 -3 -2 0 2 4 5 6 5 3 2 1 0 1 1 1 3 4 5 4 3 2 3 4 3 1 -1 -1 -1 -1 -1 -0 -0 1 1 -0 -1 -1 -0 1 0 0 2 7 9 6 1
1 0 0 1 1 1 1 1 1 1 1 0 0 0 0 -0 -0 -0 0 -0 -0 -0 -0 -1 -1 -1 -2 -2 -1 -1 -0 0 0 0 0 -1 -1 -2 -2 -1 -0 1 2 3 4 4 5 4 2 1 0 -0 -0 -0 -0 0 2 4 4 1 1 1 3 3 2 0 -1 -1 -1 -1 -1 -0 0 1 -1 -2 -1 0 2 0 -0 0 3 6 4 0
1 1 1 1 1 1 1 1 1 1 1 1 1 1 0 -0 -0 -0 -1 -1 -0 0 -0 -1 -1 -1 -2 -2 -1 -1 -1 -1 -1 -0 -0 -1 -1 -0 -0 0 1 1 2 2 1 1 1 0 -0 -1 -1 -1 -1 -1 -1 -1 1 3 3 1 1 1 2 3 2 1 -0 -1 -1 -1 -0 -1 -1 -1 -2 -2 -1 0 1 0 1 2 4 4 2 -0
2 2 1 1 1 1 1 1 1 1 1 1 1 1 0 0 0 -0 -1 -0 0 -0 -1 -1 -1 -1 -1 -0 -0 -1 -1 -1 -1 -1 -1 -0 -0 0 1 1 1 0 0 -1 -1 -2 -2 -2 -1 -1 -0 -0 -0 -1 -1 -1 1 3 4 2 1 2 3 3 2 1 -0 -0 -0 -0 0 -0 -1 -1 -2 -0 0 0 1 1 2 3 5 4 2 -0
2 2 2 2 1 1 1 1 1 1 1 1 1 0 0 0 0 0 1 1 0 -1 -1 -1 -1 -1 -1 -1 -1 -2 -2 -1 -1 -1 -1 -1 -0 0 0 -0 -0 -1 -1 -1 -2 -2 -1 -0 0 1 1 2 1 1 -1 -0 1 3 4 2 2 2 3 4 3 2 0 -0 -0 0 1 1 -0 -1 -0 1 1 1 1 4 4 3 4 3 2 0
2 3 2 2 2 2 1 1 1 1 1 1 1 1 1 1 1 1 -0 -1 -1 -1 -1 -1 -1 -1 -1 -1 -2 -2 -1 -1 -1 -1 -1 -1 -1 -1 -1 -1 -1 -1 -1 -1 -0 0 1 1 2 2 2 2 2 1 0 0 1 2 3 2 2 2 4 4 4 3 1 0 0 1 2 1 1 1 1 1 1 1 1 5 5 4 2 3 2 1
1 2 2 2 2 2 1 1 2 2 1 1 1 1 1 1 1 0 -1 -1 -1 -0 0 -0 -1 -0 -0 -1 -1 -1 -1 -1 -1 -1 -1 -1 -1 -1 -1 -1 -1 -1 -0 -0 0 1 1 1 1 1 1 1 2 1 1 0 0 1 2 1 1 2 3 4 3 2 1 1 2 3 3 3 2 3 3 3 2 2 2 4 5 4 2 2 2 2
-1 0 1 2 1 1 1 1 1 2 2 2 1 1 1 1 1 0 1 2 1 1 -0 -0 -1 -1 -2 -2 -2 -1 -1 -1 -1 -1 -2 -2 -2 -2 -1 -1 -1 -1 -0 -0 -0 -0 -0 0 0 1 0 0 1 1 1 1 0 1 1 1 1 1 2 2 1 0 -1 0 2 4 3 3 3 3 4 3 3 3 2 4 5 4 2 2 3 4
-1 -0 1 1 1 1 2 1 1 2 2 1 1 1 1 1 1 1 2 1 -0 -1 -1 -1 -2 -2 -3 -2 -2 -1 -1 -2 -3 -3 -3 -2 -2 -2 -2 -1 -1 -1 -1 -1 -1 -1 -1 -0 0 0 -0 -0 0 1 1 1 0 0 1 1 0 -0 -0 -0 -1 -3 -4 -1 1 2 2 2 2 3 3 3 3 3 3 4 4 4 2 2 3 5
-1 -0 0 1 1 1 1 1 2 2 2 2 2 1 1 1 1 1 0 -1 -1 -0 0 -0 -1 -1 -1 -0 -1 -1 -1 -1 -2 -2 -2 -3 -3 -3 -2 -2 -2 -2 -2 -2 -2 -1 -1 -0 -0 0 -0 -0 0 1 1 0 -1 -0 1 1 -0 -1 -2 -2 -4 -4 -4 -1 1 1 0 1 1 2 2 2 2 2 3 3 4 3 3 1 2 4
-1 -0 -0 1 1 1 1 1 1 2 2 2 2 1 1 1 1 1 -0 0 1 1 0 -1 -1 -1 -1 -2 -2 -2 -1 -1 -1 -1 -1 -1 -1 -1 -1 -2 -2 -2 -2 -2 -2 -1 -1 -1 -0 0 0 -0 0 1 1 -0 -1 -1 1 -0 -1 -2 -3 -3 -3 -3 -1 2 2 2 -0 0 1 1 2 1 1 1 2 2 3 2 2 1 1 3
-1 -0 0 1 1 1 1 1 1 1 2 2 1 1 1 1 1 0 0 1 0 -0 -1 -1 -1 -1 -3 -3 -3 -2 -1 -2 -3 -4 -4 -3 -2 -2 -1 -1 -2 -2 -2 -2 -1 -2 -2 -1 -1 -0 -0 -0 0 1 2 0 -1 -1 -0 -1 -2 -3 -3 -2 -1 1 3 5 5 3 1 0 0 1 1 0 0 0 1 2 2 2 2 1 1 1
-0 -0 0 0 1 1 1 1 1 1 1 2 2 2 2 2 1 1 1 0 -0 -1 0 1 -0 -2 -3 -2 -0 -0 -1 -2 -3 -3 -2 -3 -4 -5 -4 -4 -3 -3 -3 -1 -1 -1 -2 -2 -1 -1 -1 -0 0 1 2 1 -0 -1 -1 -1 -2 -2 -1 1 2 4 5 6 5 3 1 0 -0 0 0 -0 -0 -0 0 1 1 1 1 1 1 1
-0 -0 0 0 1 1 1 1 1 1 2 2 2 2 1 1 1 0 0 -0 -1 -0 1 0 -1 -2 -2 -1 -1 -2 -2 -1 0 1 0 -2 -4 -5 -4 -4 -5 -5 -4 -2 -3 -3 -4 -3 -2 -1 -2 -1 -0 0 1 0 -0 -0 -1 -0 -0 0 1 2 2 2 3 2 1 -1 -2 -2 -1 -1 -0 -0 -1 -1 -1 -0 0 1 1 1 1 1
0 0 0 0 0 1 1 1 1 1 1 1 1 1 -0 -0 -0 -0 0 -0 -0 -0 -0 -1 -1 -1 -1 -3 -3 -2 -1 -0 -0 -1 -4 -5 -4 -2 0 -0 -1 -1 0 -1 -3 -5 -4 -2 -2 -3 -3 -2 -1 -1 -0 -0 -1 -1 -1 -0 1 1 1 1 1 1 0 -0 -2 -3 -4 -4 -3 -2 -1 -1 -1 -1 -1 -1 0 1 1 1 2 2
0 0 0 0 0 0 1 1 1 0 0 0 0 1 0 1 1 1 1 0 0 0 -1 -1 -0 -1 -3 -2 -1 0 -0 -1 -2 -4 -5 -4 -2 -2 -1 -2 -1 -0 -0 -2 -3 -2 -0 -0 -2 -4 -3 -2 -3 -3 -2 -2 -2 -1 -1 -0 0 1 1 0 0 0 1 -1 -2 -4 -5 -4 -4 -3 -2 -1 -2 -2 -1 -1 0 1 2 2 2 1
0 0 0 0 0 0 0 0 0 0 0 0 1 1 1 1 1 1 0 0 -0 -1 -1 -0 -1 -2 -3 -2 -1 -2 -2 -1 -2 -2 0 -0 -2 -4 -5 -5 -6 -6 -7 -6 -4 -3 -1 -3 -4 -4 -2 -3 -4 -3 -2 -2 -2 -2 -1 -0 1 1 1 1 1 1 1 -0 -2 -3 -4 -4 -3 -3 -2 -2 -2 -2 -2 -1 0 1 2 2 1 1
-0 -0 -0 -0 -0 -0 -0 -0 -0 -0 -1 -0 0 0 -0 -0 -0 -0 -0 -0 -1 -1 -0 0 -0 -1 -1 -2 -4 -5 -2 -1 -1 -0 0 -3 -5 -5 -4 -3 -4 -4 -3 -2 -2 -2 -4 -8 -7 -5 -3 -4 -3 -2 -2 -2 -2 -1 -0 0 1 1 1 1 2 2 1 -1 -3 -4 -4 -4 -3 -3 -3 -2 -2 -2 -1 -0 1 1 2 1 1 0
-1 -1 -1 -0 -0 -1 -1 -1 -1 -1 -0 -0 -0 -0 -0 -1 -0 -0 -0 -1 -1 -1 0 -0 -1 -1 -1 -4 -3 0 2 -0 -0 -0 -3 -5 -5 -4 -4 -3 -0 2 2 -0 -2 -3 -5 -6 -4 -2 -3 -3 -3 -2 -3 -3 -2 -1 -0 0 1 1 1 1 2 2 1 -1 -3 -4 -4 -4 -3 -3 -3 -2 -2 -2 -1 -0 1 1 2 1 1 1
-1 -1 -1 -1 -1 -1 -1 -1 -1 -1 -0 -0 -1 -1 -1 -0 -0 -0 -0 -1 -1 -0 -0 -1 -1 -2 -3 -3 -1 0 -1 -0 -0 -1 -4 -3 -3 -5 -6 -5 -4 -3 -4 -6 -6 -5 -5 -5 -2 -0 -1 -3 -3 -4 -4 -3 -1 -0 -0 0 1 1 0 1 1 1 0 -1 -3 -4 -4 -4 -3 -3 -2 -2 -1 -1 -0 0 1 2 2 2 1 1
-1 -1 -1 -1 -0 -0 -1 -2 -1 -1 -1 -1 -1 -1 -1 -1 -1 -1 -1 -1 -1 -1 -1 -1 -2 -2 -3 -3 -4 -5 -5 -2 -3 -4 -3 0 -1 -4 -6 -4 -3 -3 -5 -6 -5 -4 -5 -5 -5 -5 -6 -6 -5 -5 -4 -2 -1 -1 -1 0 1 1 0 0 0 0 -0 -2 -3 -4 -3 -2 -1 -1 -1 -1 -1 -0 1 1 2 2 2 2 2 2
-1 -1 -2 -1 -1 -0 -1 -2 -2 -1 -1 -1 -1 -0 -1 -1 -1 -1 -1 -1 -1 -1 -1 -2 -2 -2 -2 -3 -5 -4 -1 -2 -3 -2 2 1 -3 -7 -7 -4 -1 -0 -1 -3 -3 -3 -5 -5 -5 -6 -7 -6 -5 -4 -3 -3 -2 -2 -1 -0 0 0 0 0 -0 -1 -1 -3 -4 -4 -1 0 1 0 -0 -0 0 1 1 2 2 2 3 3 2 2
-2 -2 -2 -2 -1 -1 -1 -2 -2 -2 -1 -1 -0 -0 -1 -1 -1 -1 -1 -1 -1 -1 -1 -0 -0 -1 -2 -4 -4 -3 -3 -3 -1 2 2 -3 -7 -9 -7 -4 -2 -2 -4 -4 -3 -4 -6 -5 -5 -4 -4 -3 -3 -3 -3 -4 -3 -3 -2 -1 -0 -0 -0 -0 -1 -1 -2 -4 -4 -2 2 2 1 -0 -1 -0 0 1 2 2 3 3 3 3 3 2
-1 -2 -2 -3 -2 -2 -2 -2 -2 -2 -1 -1 -1 -1 -2 -2 -2 -2 -1 -1 -1 -1 -1 -1 -2 -3 -5 -5 -5 -6 -7 -4 -1 -1 -4 -5 -4 -3 -3 -4 -4 -5 -5 -4 -4 -5 -7 -5 -5 -4 -4 -3 -4 -5 -5 -5 -4 -3 -2 -1 -1 -1 -1 -2 -2 -3 -3 -3 -1 1 2 0 -2 -3 -3 -2 -1 0 2 2 3 3 4 3 3 2
1 0 -1 -2 -2 -3 -3 -3 -3 -2 -2 -1 -1 -1 -1 -1 -0 -0 -0 -1 -2 -2 -2 -3 -4 -5 -5 -4 -5 -6 -6 -3 -2 -3 -5 -1 1 -0 -7 -8 -7 -5 -3 -2 -3 -5 -5 -4 -3 -3 -3 -4 -6 -7 -7 -5 -4 -3 -3 -3 -3 -3 -3 -4 -4 -4 -3 -2 -0 1 0 -3 -4 -5 -4 -3 -2 -0 1 2 3 3 4 4 3 2
1 1 1 -0 -1 -2 -3 -3 -3 -3 -3 -2 -1 -1 -0 -0 -0 -1 -1 -2 -2 -2 -2 -3 -3 -3 -3 -3 -4 -5 -5 -4 -4 -4 -2 1 -0 -5 -13 -10 -7 -3 0 -1 -3 -6 -6 -4 -3 -3 -4 -6 -7 -7 -6 -5 -5 -4 -4 -4 -4 -4 -4 -4 -4 -4 -3 -1 0 0 -1 -3 -3 -3 -2 -1 -1 0 1 2 2 3 4 4 3 3
1 1 1 1 0 -0 -1 -2 -3 -3 -3 -3 -3 -2 -1 -1 -1 -1 -1 -2 -2 -2 -3 -3 -3 -3 -4 -5 -5 -6 -6 -6 -5 -4 -1 0 -3 -7 -11 -9 -5 -2 -0 -4 -8 -10 -8 -5 -4 -4 -7 -8 -7 -6 -5 -6 -6 -5 -5 -4 -4 -3 -3 -3 -3 -3 -1 -0 0 -0 -1 -2 -2 -0 1 1 1 1 2 2 3 4 4 4 3 2
1 1 1 2 1 1 0 -1 -2 -3 -4 -4 -3 -3 -2 -2 -2 -2 -2 -3 -3 -3 -3 -3 -3 -4 -5 -5 -5 -5 -6 -7 -6 -4 -1 -1 -3 -6 -8 -6 -5 -4 -4 -7 -8 -6 -2 -1 -2 -4 -6 -6 -5 -5 -6 -7 -7 -6 -5 -4 -2 -2 -2 -2 -2 -1 0 1 1 0 -1 -1 0 2 2 3 3 3 3 3 4 4 4 3 2 1
1 1 1 1 1 2 2 1 0 -1 -2 -3 -3 -3 -3 -2 -2 -2 -3 -4 -4 -3 -3 -4 -4 -5 -5 -5 -5 -6 -8 -9 -8 -5 -1 -2 -4 -5 -6 -6 -7 -7 -5 -4 -1 1 2 -1 -2 -3 -4 -4 -5 -6 -9 -9 -7 -6 -4 -3 -1 -1 -1 -1 -0 0 1 2 2 1 0 1 2 3 3 3 3 4 4 4 4 4 3 1 -1 -2
3 2 1 1 1 1 1 1 1 1 -0 -1 -2 -3 -3 -3 -3 -3 -4 -4 -3 -3 -3 -4 -5 -5 -6 -6 -6 -7 -10 -11 -8 -5 -2 -3 -4 -4 -5 -9 -10 -9 -4 -2 -1 -3 -7 -7 -5 -4 -6 -5 -6 -8 -10 -8 -6 -5 -4 -3 -2 -1 -1 -0 0 1 2 2 2 2 2 2 3 2 2 2 3 4 4 4 4 3 1 -1 -3 -3
5 5 4 3 2 1 0 1 1 1 1 0 -1 -2 -3 -3 -3 -3 -3 -3 -3 -3 -3 -4 -5 -5 -6 -6 -6 -7 -10 -10 -8 -4 -3 -3 -3 -3 -6 -11 -10 -6 -2 -4 -7 -9 -10 -4 -2 -2 -4 -4 -6 -8 -9 -7 -6 -6 -5 -3 -1 -0 -0 0 0 1 1 1 1 2 2 2 2 2 2 2 3 3 4 4 3 1 -1 -4 -5 -5
3 3 4 4 3 3 1 0 0 1 2 2 1 -0 -1 -2 -3 -3 -3 -3 -2 -2 -3 -3 -4 -5 -5 -5 -5 -7 -10 -10 -7 -4 -3 -2 -2 -4 -8 -9 -7 -4 -3 -5 -6 -6 -3 -1 -3 -4 -3 -4 -6 -7 -6 -6 -6 -6 -5 -3 -2 -1 -2 -1 -1 -1 0 0 0 0 1 1 1 2 2 3 3 3 3 3 1 -1 -4 -6 -8 -8
-0 0 1 2 3 3 3 1 1 1 1 2 2 2 1 -1 -2 -3 -3 -3 -2 -2 -2 -2 -3 -3 -4 -4 -5 -7 -10 -9 -6 -3 -1 -2 -3 -6 -9 -8 -7 -6 -5 -4 -3 -2 0 -2 -4 -5 -5 -8 -8 -7 -5 -6 -6 -6 -5 -4 -4 -4 -4 -2 -1 -1 -1 -1 -1 -1 -1 -0 0 1 2 2 2 2 2 1 -1 -3 -7 -9 -10 -9
-2 -2 -1 -0 1 2 3 2 1 1 1 1 2 2 2 1 -0 -1 -2 -2 -2 -2 -1 -1 -2 -2 -2 -3 -4 -6 -8 -7 -4 -1 -1 -3 -4 -6 -7 -8 -8 -7 -4 -4 -4 -4 -4 -5 -4 -4 -6 -5 -4 -2 -3 -6 -8 -8 -7 -7 -7 -5 -3 -1 -1 -1 -1 -2 -2 -2 -2 -1 -0 1 1 -0 0 1 1 -0 -3 -6 -9 -10 -9 -7
-3 -3 -2 -1 0 1 2 2 2 1 1 1 1 1 2 2 2 1 -0 -1 -1 -1 -1 -1 -1 -2 -2 -2 -2 -4 -5 -4 -1 0 -1 -3 -4 -5 -6 -7 -6 -4 -3 -4 -5 -6 -7 -7 -8 -10 -10 -4 -1 -2 -5 -8 -9 -8 -7 -8 -7 -5 -4 -3 -3 -3 -2 -2 -2 -3 -3 -2 -1 0 -1 -0 1 1 1 -1 -4 -7 -9 -9 -8 -6
-3 -3 -4 -3 -1 0 2 2 2 2 1 2 2 1 0 1 1 2 1 0 -1 -1 -1 -1 -1 -1 -1 -2 -2 -3 -4 -1 0 1 -1 -3 -4 -5 -6 -6 -5 -3 -3 -4 -4 -5 -6 -5 -5 -4 -1 -1 -3 -6 -7 -7 -5 -4 -4 -6 -6 -5 -4 -5 -5 -4 -3 -2 -3 -4 -4 -1 -0 0 -0 2 3 3 2 -1 -4 -6 -7 -6 -5 -4
-2 -2 -3 -3 -3 -2 -0 1 2 2 2 2 2 2 1 -0 -1 -0 1 1 0 -0 -1 -1 -1 -1 -0 -1 -1 -2 -2 -0 1 0 -2 -3 -4 -5 -6 -4 -3 -3 -4 -4 -4 -4 -4 -3 -1 -0 1 -3 -5 -6 -4 -2 -1 -2 -6 -9 -9 -7 -6 -5 -4 -2 -2 -4 -5 -5 -2 1 2 2 3 5 6 5 3 -1 -4 -5 -6 -5 -4 -2
-2 -2 -3 -4 -4 -4 -3 -1 -0 1 2 2 3 4 5 4 2 -1 -1 -1 0 0 0 -0 -1 -1 -0 0 0 0 0 1 1 -1 -3 -4 -4 -4 -3 -3 -2 -3 -3 -3 -2 -2 -1 -3 -4 -5 -7 -6 -4 -2 -2 -4 -6 -10 -15 -15 -12 -9 -6 -5 -3 -2 -3 -5 -5 -3 1 4 4 4 5 6 6 5 2 -2 -4 -5 -5 -4 -3 -2
-3 -3 -5 -5 -5 -5 -5 -4 -3 -2 -1 1 2 3 5 7 8 7 2 -0 -1 -0 0 -0 -0 -1 -1 -0 0 1 2 2 1 -1 -3 -3 -3 -2 -2 -1 -1 -1 0 0 0 0 0 -1 -3 -3 -2 1 3 3 -0 -4 -9 -12 -12 -5 1 2 -0 -3 -4 -4 -5 -4 -1 4 7 6 5 4 4 4 3 1 -2 -6 -7 -6 -5 -5 -4 -4
1 -0 -2 -3 -4 -5 -5 -5 -4 -4 -4 -3 -2 -1 -0 2 4 5 5 2 0 -0 -0 -1 -2 -2 -2 -1 -0 0 1 1 -0 -1 -2 -2 -1 -1 -1 -0 1 1 2 2 2 2 2 3 4 4 5 3 -1 -4 -5 -7 -7 -4 4 8 6 2 -4 -6 -6 -6 -6 -3 1 5 6 4 3 2 2 1 0 -1 -5 -7 -7 -8 -8 -8 -6 -6
6 5 4 2 1 -0 -2 -3 -4 -3 -3 -3 -3 -3 -2 -2 -2 -1 -1 -1 -1 -1 -1 -3 -3 -3 -2 -1 -1 -0 -0 -0 -1 -1 -1 -0 -0 0 1 1 1 2 3 4 5 6 7 6 4 1 -1 -2 -2 -2 -4 -7 -6 -3 2 -5 -16 -23 -22 -15 -11 -8 -6 -2 0 1 0 -0 -0 0 1 -0 -1 -2 -4 -3 -4 -5 -7 -9 -10 -11
8 7 6 5 4 4 2 -0 -2 -2 -2 -1 -1 -2 -2 -2 -2 -2 -1 -1 -1 -1 -3 -3 -3 -2 -1 -1 -1 -1 -0 -1 -1 -0 0 0 1 1 2 2 2 2 3 5 8 10 9 6 1 -5 -9 -5 -1 2 2 2 4 3 -2 -13 -16 -12 -2 -1 -3 -4 -2 -0 1 1 -0 -0 0 1 2 2 1 -0 0 0 -2 -4 -5 -6 -8 -10
7 4 2 3 4 4 2 0 -1 -1 -1 -0 -0 -0 -1 -0 -0 -0 -0 -1 -1 -1 -1 -2 -2 -2 -1 -1 -1 -0 -0 -0 -0 0 1 1 1 1 1 2 2 3 4 10 14 16 12 4 -2 -5 -3 3 3 1 -2 2 4 3 -2 -3 5 15 21 7 -0 -2 1 1 0 0 -0 -2 -2 -0 3 2 1 0 0 -2 -5 -6 -6 -6 -6 -5
1 -2 -3 0 3 3 1 -1 -1 -1 -0 0 0 0 0 1 0 0 -0 -1 -1 -1 -1 -1 -1 -0 -1 -1 -1 -1 -0 0 1 1 1 1 1 0 0 1 2 5 11 16 16 13 6 -0 -3 -2 3 5 5 4 6 5 2 -0 -1 3 3 -6 -24 -30 -24 -11 -1 1 1 1 -3 -4 -2 2 4 2 1 0 -2 -5 -7 -6 -5 -4 -3 -2
-2 -4 -5 -1 2 3 1 -0 -1 -0 1 1 1 1 1 1 1 1 0 -1 -1 -1 -1 -1 -0 1 1 0 -0 -0 -0 1 1 2 2 1 -0 -1 -2 1 5 12 18 16 11 4 -1 -2 0 4 7 3 1 2 4 4 4 4 7 3 -4 -15 -28 -17 -5 3 -0 -1 -0 -0 -3 -2 2 5 5 1 -1 -2 -4 -6 -6 -6 -6 -5 -4 -2
-2 -2 -3 -1 1 3 2 0 -0 0 1 1 1 2 2 1 1 1 0 -0 -1 -1 -1 -0 -0 0 0 0 0 0 1 1 1 1 1 0 -0 -0 1 5 11 15 15 9 3 -1 -2 -1 2 5 7 5 6 8 6 2 1 2 6 -3 -8 -6 5 18 16 7 -4 -4 -4 -4 -5 -1 2 2 -2 -4 -4 -4 -5 -5 -5 -6 -8 -7 -7 -6
-0 1 1 -1 0 2 2 0 0 0 1 1 2 2 2 2 2 1 1 -0 -0 -0 -0 -0 -0 -0 -0 -0 0 1 1 1 1 1 0 0 2 5 10 14 14 11 7 2 -0 -1 -1 -1 1 3 2 3 10 18 22 19 13 5 -2 -8 -10 -8 -3 -3 -12 -21 -19 -9 -5 -4 -3 1 -0 -4 -9 -5 -2 0 -1 -2 -4 -5 -6 -5 -5 -5
2 3 3 0 -0 0 1 0 0 1 1 2 2 2 2 2 2 2 1 0 0 0 0 0 0 0 0 0 0 -0 -0 0 1 1 2 5 8 12 15 15 12 8 3 0 -1 -3 -5 -4 -0 2 1 -0 5 16 29 35 33 24 9 0 -4 -7 -11 -15 -16 -14 -4 -3 -4 -5 -2 -2 -6 -9 -8 -2 1 0 -1 -2 -4 -5 -5 -3 -3 -3
3 4 5 1 -0 0 1 1 1 1 2 2 2 2 2 2 2 2 2 1 1 1 1 0 0 0 0 0 1 1 1 1 1 3 6 9 12 13 13 12 10 8 6 2 -1 -5 -8 -6 -2 1 1 -3 -1 5 11 18 25 29 24 14 5 -1 -1 1 5 8 9 -0 -5 -6 -4 -7 -10 -9 -2 2 -1 -6 -6 -4 -4 -4 -3 -3 -3 -2
3 4 5 1 -0 0 1 1 1 2 2 2 3 3 3 3 2 2 2 1 1 1 1 1 1 1 0 0 1 2 3 4 5 7 8 9 9 9 9 10 10 11 12 8 1 -5 -7 -2 2 3 1 -3 -3 -0 4 7 11 15 19 19 10 1 0 5 3 -4 -14 -15 -11 -7 -5 -6 -4 -0 6 2 -3 -5 -2 -1 -0 -1 -1 -2 -2 -1
3 3 4 2 1 -0 1 1 2 2 3 3 3 3 3 3 2 2 2 2 1 1 1 1 1 1 1 1 1 2 2 3 5 7 8 7 7 6 8 10 13 16 20 15 6 -2 -5 1 7 10 9 2 -1 1 9 14 15 14 14 24 20 10 -0 -3 -8 -14 -22 -17 -11 -6 -6 -5 -3 -1 -1 -5 -4 0 3 1 -2 -3 -3 -2 -1 -0
Height
5279 5280 5281 5283 5285 5287 5288 5290 5293 5295 5297 5300 5302 5305 5308 5311 5314 5318 5321 5324 5327 5330 5333 5337 5340 5344 5348 5353 5357 5362 5366 5371 5375 5380 5385 5390 5396 5402 5408 5415 5422 5430 5438 5445 5453 5460 5467 5474 5481 5488 5495 5503 5510 5518 5526 5533 5540 5548 5554 5561 5567 5574 5581 5587 5593 5598 5604 5610 5615 5621 5627 5633 5638 5643 5648 5653 5659 5664 5668 5673 5678 5683 5688 5692 5696 5699
5279 5280 5281 5283 5284 5286 5288 5290 5292 5294 5297 5299 5302 5304 5307 5310 5313 5316 5319 5323 5326 5329 5332 5335 5338 5343 5347 5351 5355 5359 5363 5368 5372 5377 5382 5387 5393 5399 5406 5413 5420 5428 5435 5442 5448 5455 5461 5468 5474 5482 5489 5497 5504 5512 5519 5527 5534 5542 5549 5555 5562 5569 5576 5582 5588 5595 5600 5606 5612 5618 5623 5628 5634 5639 5644 5649 5655 5660 5664 5669 5674 5679 5684 5688 5692 5695
5279 5280 5282 5283 5284 5286 5288 5290 5292 5293 5296 5298 5301 5303 5306 5309 5312 5315 5318 5321 5324 5327 5330 5333 5337 5341 5345 5348 5353 5357 5361 5365 5370 5374 5379 5385 5391 5397 5403 5410 5417 5423 5430 5436 5442 5448 5454 5461 5468 5476 5484 5491 5499 5506 5514 5521 5529 5537 5544 5551 5557 5564 5571 5578 5584 5590 5596 5602 5608 5614 5619 5624 5630 5635 5641 5646 5651 5656 5661 5666 5670 5675 5680 5684 5688 5692
5279 5280 5282 5283 5284 5286 5288 5289 5291 5293 5295 5298 5300 5303 5305 5308 5311 5314 5316 5319 5322 5326 5329 5332 5335 5339 5343 5346 5350 5354 5358 5363 5367 5372 5377 5383 5388 5394 5400 5406 5412 5418 5424 5429 5435 5442 5449 5456 5464 5472 5480 5487 5495 5502 5509 5517 5524 5532 5539 5546 5553 5560 5567 5573 5580 5586 5592 5598 5604 5610 5615 5621 5626 5631 5637 5642 5647 5652 5658 5663 5668 5672 5677 5681 5685 5689
5278 5280 5281 5283 5284 5286 5287 5289 5291 5293 5295 5297 5299 5302 5305 5307 5310 5312 5315 5318 5321 5324 5327 5330 5334 5337 5341 5344 5348 5352 5356 5361 5365 5370 5375 5380 5385 5391 5396 5402 5408 5413 5419 5425 5431 5438 5446 5453 5461 5468 5476 5483 5490 5498 5504 5512 5519 5527 5534 5541 5548 5555 5562 5569 5576 5582 5588 5593 5599 5606 5611 5617 5622 5628 5633 5638 5643 5648 5654 5659 5664 5668 5673 5678 5682 5686
5278 5279 5281 5282 5284 5285 5287 5288 5290 5292 5294 5297 5299 5301 5303 5306 5308 5311 5314 5317 5320 5323 5326 5328 5332 5335 5338 5342 5346 5350 5354 5358 5363 5367 5372 5377 5382 5387 5393 5398 5403 5409 5415 5422 5428 5435 5443 5450 5457 5464 5471 5478 5486 5493 5500 5507 5514 5522 5529 5536 5543 5550 5557 5564 5571 5577 5583 5589 5595 5601 5607 5613 5618 5624 5629 5634 5639 5645 5650 5655 5660 5664 5669 5674 5678 5683
5277 5278 5280 5282 5283 5284 5286 5288 5290 5292 5294 5296 5298 5300 5303 5305 5308 5310 5313 5315 5318 5321 5324 5327 5330 5333 5336 5340 5344 5348 5352 5356 5360 5365 5369 5374 5379 5384 5389 5394 5400 5406 5412 5418 5425 5432 5438 5445 5452 5459 5466 5473 5480 5487 5494 5502 5509 5516 5524 5531 5538 5545 5552 5559 5566 5572 5578 5584 5591 5597 5603 5608 5614 5620 5625 5630 5636 5641 5646 5651 5656 5661 5666 5671 5675 5679
5276 5278 5279 5281 5282 5284 5286 5287 5289 5291 5293 5295 5297 5299 5302 5304 5307 5309 5311 5314 5317 5319 5323 5326 5328 5332 5335 5338 5342 5345 5349 5353 5358 5362 5366 5371 5376 5381 5386 5392 5397 5403 5409 5415 5421 5427 5433 5440 5447 5453 5460 5467 5474 5482 5489 5496 5504 5511 5519 5526 5533 5540 5547 5553 5560 5567 5573 5579 5586 5592 5598 5604 5609 5615 5621 5626 5632 5637 5642 5647 5652 5657 5662 5667 5672 5676
5276 5277 5278 5280 5282 5283 5285 5287 5288 5290 5292 5294 5296 5298 5301 5303 5305 5308 5310 5313 5316 5318 5321 5324 5327 5330 5333 5336 5339 5343 5347 5351 5355 5359 5363 5368 5373 5378 5383 5388 5394 5399 5405 5411 5417 5423 5429 5435 5442 5448 5455 5462 5470 5477 5484 5491 5498 5506 5514 5521 5528 5534 5541 5548 5554 5561 5568 5574 5581 5587 5593 5599 5605 5611 5616 5622 5627 5632 5638 5643 5648 5653 5658 5663 5668 5673
5276 5277 5278 5280 5281 5283 5284 5286 5288 5289 5291 5293 5295 5297 5299 5302 5304 5307 5309 5312 5314 5317 5319 5322 5325 5328 5331 5334 5338 5341 5345 5349 5353 5357 5361 5365 5370 5375 5380 5385 5390 5396 5401 5407 5413 5419 5425 5431 5438 5444 5451 5458 5465 5472 5479 5486 5493 5501 5509 5516 5523 5529 5536 5543 5549 5556 5563 5570 5576 5582 5588 5594 5600 5606 5612 5617 5623 5628 5633 5638 5644 5649 5654 5659 5664 5669
5276 5277 5278 5279 5281 5283 5284 5285 5287 5289 5291 5293 5295 5297 5299 5301 5303 5305 5308 5310 5312 5315 5318 5320 5323 5326 5329 5332 5336 5339 5343 5347 5350 5354 5358 5363 5367 5372 5377 5382 5387 5392 5398 5403 5409 5415 5421 5427 5433 5440 5446 5453 5460 5467 5474 5481 5488 5496 5503 5511 5518 5525 5531 5539 5546 5553 5559 5566 5572 5578 5584 5589 5596 5601 5607 5613 5618 5623 5629 5634 5640 5645 5650 5655 5660 5665
5276 5277 5278 5279 5280 5282 5283 5285 5287 5288 5290 5292 5294 5296 5298 5300 5302 5304 5306 5308 5311 5313 5316 5318 5321 5324 5327 5330 5334 5337 5341 5345 5348 5352 5356 5360 5364 5369 5373 5378 5383 5389 5394 5400 5405 5411 5417 5423 5429 5435 5442 5448 5455 5462 5469 5477 5484 5491 5498 5506 5513 5520 5527 5534 5542 5548 5555 5562 5568 5574 5579 5585 5591 5597 5603 5608 5614 5619 5624 5630 5635 5641 5646 5652 5657 5662
5276 5277 5278 5279 5280 5281 5283 5284 5286 5288 5289 5291 5293 5294 5296 5298 5300 5303 5305 5307 5309 5312 5314 5317 5319 5322 5325 5328 5332 5335 5339 5343 5346 5350 5354 5358 5362 5366 5371 5376 5381 5386 5391 5396 5402 5407 5413 5418 5424 5431 5437 5444 5451 5458 5465 5472 5479 5486 5493 5501 5508 5516 5523 5530 5538 5544 5551 5557 5563 5569 5575 5581 5587 5593 5598 5604 5610 5615 5620 5626 5631 5637 5642 5648 5653 5658
5276 5277 5278 5278 5280 5281 5282 5283 5285 5286 5288 5289 5291 5293 5294 5297 5299 5302 5304 5306 5308 5311 5313 5316 5318 5321 5323 5327 5330 5333 5337 5340 5344 5348 5351 5355 5359 5363 5368 5373 5378 5383 5388 5393 5398 5404 5409 5414 5420 5427 5433 5439 5446 5453 5460 5467 5474 5481 5489 5497 5504 5512 5519 5526 5533 5539 5545 5552 5558 5564 5570 5576 5582 5588 5594 5600 5606 5611 5616 5622 5627 5633 5638 5644 5649 5654
5276 5277 5278 5278 5279 5280 5281 5283 5284 5285 5287 5288 5291 5293 5295 5297 5299 5301 5303 5305 5307 5309 5312 5314 5317 5319 5322 5325 5328 5332 5335 5338 5342 5346 5349 5353 5356 5360 5364 5369 5374 5379 5384 5390 5395 5400 5405 5410 5416 5423 5428 5435 5441 5448 5455 5462 5469 5477 5484 5492 5499 5507 5514 5521 5528 5534 5540 5547 5553 5559 5565 5572 5578 5584 5590 5596 5602 5607 5613 5618 5623 5629 5635 5640 5646 5651
5277 5277 5277 5278 5279 5280 5281 5282 5283 5285 5286 5288 5290 5292 5294 5295 5297 5299 5301 5303 5305 5308 5311 5313 5315 5318 5320 5323 5326 5329 5333 5337 5340 5343 5347 5350 5353 5357 5362 5367 5371 5376 5381 5386 5391 5396 5400 5406 5412 5418 5424 5430 5437 5443 5450 5457 5464 5472 5479 5487 5494 5502 5509 5516 5523 5529 5536 5543 5549 5555 5561 5567 5574 5580 5586 5592 5598 5603 5609 5614 5620 5626 5631 5637 5642 5647
5277 5277 5277 5278 5278 5279 5280 5281 5283 5284 5285 5287 5289 5290 5292 5293 5295 5298 5300 5302 5304 5307 5309 5311 5313 5316 5318 5321 5324 5328 5331 5334 5338 5341 5344 5347 5350 5354 5359 5364 5369 5373 5378 5383 5387 5392 5397 5403 5409 5414 5420 5426 5433 5439 5446 5453 5460 5467 5474 5482 5490 5497 5505 5512 5519 5525 5532 5538 5545 5551 5557 5563 5570 5576 5582 5588 5594 5600 5605 5611 5617 5622 5628 5633 5638 5644
5277 5277 5277 5277 5278 5278 5279 5280 5282 5283 5284 5286 5288 5289 5291 5293 5295 5297 5299 5301 5303 5305 5307 5309 5312 5314 5316 5319 5323 5326 5328 5332 5335 5338 5342 5345 5348 5352 5356 5360 5365 5370 5374 5379 5383 5388 5393 5399 5405 5411 5417 5423 5429 5435 5442 5449 5456 5463 5470 5478 5485 5493 5500 5507 5514 5521 5528 5534 5541 5547 5553 5560 5566 5572 5578 5585 5590 5596 5602 5608 5613 5619 5624 5630 5635 5640
5277 5277 5277 5277 5278 5278 5279 5280 5281 5282 5283 5285 5286 5288 5290 5292 5293 5295 5297 5299 5301 5303 5305 5308 5310 5312 5314 5317 5319 5322 5326 5330 5333 5336 5339 5343 5346 5349 5353 5358 5362 5366 5371 5375 5379 5384 5390 5395 5401 5407 5413 5419 5425 5431 5438 5445 5452 5459 5466 5473 5481 5488 5495 5503 5510 5517 5523 5530 5536 5543 5549 5556 5562 5568 5575 5581 5587 5593 5599 5604 5610 5616 5621 5626 5632 5637
5277 5277 5277 5277 5277 5278 5278 5279 5280 5281 5283 5284 5285 5287 5288 5290 5292 5294 5296 5298 5299 5302 5304 5306 5308 5310 5313 5315 5318 5321 5324 5328 5331 5334 5337 5340 5343 5346 5351 5355 5360 5364 5368 5372 5376 5381 5386 5392 5397 5403 5409 5415 5421 5428 5434 5440 5447 5454 5462 5469 5476 5483 5491 5498 5505 5512 5519 5526 5532 5539 5546 5552 5558 5565 5572 5578 5584 5590 5596 5601 5607 5613 5618 5623 5628 5634
5277 5277 5277 5277 5277 5277 5278 5278 5279 5280 5282 5283 5284 5286 5287 5289 5291 5292 5294 5296 5298 5300 5303 5305 5306 5308 5310 5313 5316 5319 5323 5326 5329 5332 5334 5337 5340 5344 5348 5352 5357 5361 5365 5369 5373 5377 5383 5388 5394 5400 5406 5412 5418 5423 5430 5436 5443 5450 5457 5464 5471 5479 5486 5493 5500 5508 5515 5522 5528 5535 5542 5548 5555 5562 5568 5574 5580 5587 5593 5598 5604 5609 5615 5620 5625 5630
5277 5277 5277 5277 5277 5277 5277 5278 5278 5279 5280 5282 5283 5284 5286 5287 5289 5291 5293 5295 5297 5299 5301 5302 5304 5306 5309 5312 5314 5317 5320 5323 5326 5329 5332 5335 5338 5342 5345 5349 5353 5358 5362 5365 5369 5373 5379 5385 5391 5397 5403 5408 5414 5420 5426 5433 5439 5446 5453 5460 5467 5474 5482 5489 5496 5503 5510 5518 5525 5532 5538 5545 5552 5558 5564 5571 5577 5583 5589 5595 5601 5606 5612 5617 5622 5627
5277 5277 5276 5276 5276 5277 5277 5277 5277 5278 5279 5280 5282 5283 5284 5286 5288 5289 5291 5293 5295 5297 5298 5300 5302 5305 5307 5310 5312 5315 5318 5321 5324 5327 5330 5334 5336 5338 5342 5346 5350 5355 5358 5362 5366 5371 5376 5382 5388 5393 5398 5404 5410 5416 5422 5428 5435 5442 5448 5455 5463 5470 5477 5484 5492 5498 5506 5513 5521 5528 5535 5542 5548 5554 5560 5567 5573 5580 5586 5592 5597 5603 5608 5613 5619 5624
5276 5276 5276 5276 5276 5276 5276 5276 5277 5277 5278 5279 5280 5281 5283 5285 5287 5288 5290 5291 5293 5295 5297 5299 5301 5304 5306 5308 5310 5313 5316 5318 5322 5325 5329 5331 5333 5335 5338 5343 5348 5352 5356 5359 5363 5368 5373 5379 5384 5389 5395 5401 5406 5412 5418 5424 5431 5437 5444 5451 5458 5465 5472 5479 5487 5494 5502 5509 5516 5523 5531 5537 5543 5550 5556 5563 5569 5576 5582 5588 5594 5599 5605 5610 5615 5620
5276 5276 5276 5275 5275 5275 5276 5276 5276 5276 5277 5278 5279 5280 5282 5283 5284 5286 5287 5289 5291 5293 5295 5298 5299 5301 5303 5305 5308 5311 5313 5316 5319 5323 5326 5328 5330 5333 5336 5341 5345 5349 5352 5355 5359 5364 5370 5376 5381 5386 5391 5397 5403 5408 5414 5420 5427 5433 5440 5447 5453 5460 5468 5475 5483 5490 5498 5506 5513 5520 5527 5533 5539 5546 5553 5559 5566 5572 5578 5584 5590 5596 5601 5607 5612 5617
5276 5275 5275 5275 5275 5275 5275 5275 5275 5275 5276 5276 5277 5278 5279 5280 5282 5284 5286 5287 5289 5291 5293 5295 5296 5298 5300 5303 5306 5308 5310 5314 5317 5320 5323 5325 5328 5331 5334 5338 5342 5345 5349 5353 5357 5363 5368 5373 5378 5383 5388 5393 5399 5404 5410 5417 5423 5429 5436 5443 5450 5457 5464 5471 5479 5487 5494 5502 5509 5516 5523 5529 5536 5543 5549 5556 5562 5568 5574 5580 5586 5592 5598 5603 5608 5613
5277 5276 5275 5274 5274 5274 5274 5274 5274 5274 5275 5275 5276 5277 5278 5279 5280 5282 5283 5284 5286 5288 5290 5292 5294 5296 5299 5302 5304 5306 5308 5311 5315 5318 5320 5323 5326 5328 5331 5334 5338 5343 5346 5351 5355 5360 5365 5370 5374 5379 5384 5389 5395 5400 5407 5413 5419 5426 5432 5439 5446 5454 5461 5469 5476 5484 5491 5499 5506 5513 5519 5526 5533 5540 5546 5553 5559 5565 5571 5577 5583 5588 5593 5599 5604 5608
5277 5276 5275 5275 5274 5273 5273 5273 5273 5273 5274 5274 5275 5275 5276 5278 5278 5279 5280 5282 5284 5287 5288 5290 5292 5294 5297 5299 5301 5303 5306 5309 5312 5315 5318 5321 5324 5326 5328 5331 5335 5340 5344 5348 5353 5357 5362 5366 5371 5375 5380 5385 5391 5397 5403 5409 5416 5423 5429 5436 5444 5451 5458 5466 5473 5481 5488 5495 5502 5509 5516 5523 5530 5536 5543 5549 5555 5561 5567 5573 5578 5584 5589 5594 5599 5604
5278 5277 5276 5275 5274 5273 5273 5273 5272 5273 5273 5273 5273 5274 5275 5276 5277 5278 5278 5281 5283 5285 5286 5288 5290 5292 5294 5296 5298 5301 5304 5307 5309 5312 5316 5319 5322 5323 5325 5329 5333 5338 5342 5346 5350 5354 5359 5363 5368 5372 5377 5382 5388 5393 5400 5406 5413 5419 5426 5433 5441 5448 5455 5462 5469 5477 5484 5491 5498 5505 5512 5519 5526 5533 5539 5545 5551 5557 5563 5569 5574 5580 5584 5589 5594 5599
5279 5278 5277 5275 5274 5273 5273 5272 5272 5272 5272 5272 5273 5273 5273 5274 5275 5276 5277 5279 5281 5282 5284 5286 5288 5290 5292 5294 5297 5300 5302 5304 5307 5310 5314 5317 5319 5320 5323 5327 5331 5335 5339 5343 5348 5352 5357 5361 5365 5369 5374 5379 5385 5391 5397 5403 5410 5417 5423 5430 5437 5444 5451 5458 5466 5473 5480 5487 5494 5501 5508 5515 5522 5528 5534 5541 5547 5553 5559 5565 5570 5575 5580 5585 5590 5595
5279 5278 5278 5276 5275 5274 5273 5272 5271 5271 5271 5271 5271 5272 5272 5273 5273 5274 5276 5277 5278 5280 5282 5283 5285 5288 5290 5293 5295 5297 5298 5301 5304 5308 5312 5314 5316 5318 5321 5324 5328 5331 5336 5341 5345 5350 5354 5357 5361 5366 5370 5376 5381 5388 5393 5400 5407 5413 5420 5427 5433 5441 5448 5454 5461 5468 5475 5483 5490 5497 5504 5511 5518 5524 5530 5537 5543 5549 5555 5560 5565 5570 5575 5581 5586 5592
5280 5279 5278 5277 5276 5274 5273 5273 5272 5271 5271 5270 5270 5271 5271 5272 5272 5273 5274 5275 5276 5278 5280 5281 5283 5285 5288 5290 5292 5294 5296 5299 5303 5307 5309 5311 5313 5315 5318 5321 5324 5328 5333 5338 5342 5345 5349 5353 5357 5362 5367 5373 5378 5384 5390 5396 5403 5410 5416 5423 5430 5437 5443 5450 5457 5463 5471 5478 5485 5492 5499 5506 5513 5520 5526 5533 5539 5545 5550 5556 5561 5566 5571 5577 5583 5588
5280 5279 5278 5277 5276 5275 5274 5273 5272 5271 5270 5270 5270 5270 5270 5270 5271 5272 5272 5273 5274 5276 5278 5279 5281 5283 5285 5288 5289 5292 5294 5298 5301 5304 5306 5308 5311 5313 5316 5319 5322 5327 5331 5335 5338 5342 5345 5349 5353 5358 5363 5369 5375 5381 5387 5393 5399 5406 5412 5419 5426 5433 5439 5445 5452 5459 5467 5473 5480 5488 5495 5502 5509 5516 5522 5528 5534 5540 5546 5552 5557 5562 5568 5574 5579 5586
5280 5279 5278 5277 5276 5275 5274 5273 5273 5272 5271 5270 5270 5269 5269 5269 5270 5271 5271 5272 5273 5274 5276 5277 5279 5281 5283 5285 5287 5290 5293 5296 5299 5301 5303 5306 5308 5310 5313 5317 5320 5324 5328 5332 5336 5340 5344 5348 5352 5356 5361 5366 5372 5378 5383 5390 5396 5402 5408 5415 5422 5429 5435 5442 5449 5456 5463 5470 5477 5483 5491 5498 5505 5512 5518 5524 5531 5537 5543 5548 5553 5559 5565 5571 5577 5583
5280 5279 5278 5277 5276 5275 5275 5274 5273 5272 5271 5270 5270 5269 5269 5269 5269 5269 5270 5271 5272 5273 5273 5275 5277 5278 5280 5283 5285 5287 5290 5293 5296 5298 5301 5303 5305 5308 5311 5314 5318 5321 5325 5329 5333 5337 5342 5346 5350 5355 5359 5364 5369 5375 5381 5386 5392 5398 5404 5411 5418 5425 5432 5439 5446 5453 5460 5466 5473 5480 5487 5494 5501 5508 5514 5521 5527 5533 5539 5545 5550 5556 5562 5568 5575 5581
5280 5279 5278 5277 5276 5275 5275 5274 5273 5273 5272 5271 5270 5269 5268 5268 5268 5268 5269 5270 5270 5271 5272 5273 5274 5276 5278 5280 5282 5285 5287 5290 5293 5295 5298 5300 5303 5306 5309 5312 5315 5319 5323 5326 5330 5334 5338 5343 5347 5351 5356 5362 5367 5372 5378 5382 5388 5394 5401 5408 5415 5422 5429 5436 5443 5449 5456 5463 5470 5477 5484 5491 5498 5505 5512 5518 5525 5531 5537 5542 5548 5554 5560 5566 5572 5578
5279 5278 5278 5277 5276 5275 5275 5274 5273 5273 5272 5271 5271 5270 5269 5268 5268 5268 5268 5268 5269 5270 5271 5272 5273 5274 5276 5278 5280 5283 5285 5288 5290 5293 5295 5298 5301 5304 5307 5310 5313 5317 5321 5324 5328 5332 5336 5341 5345 5349 5354 5359 5364 5369 5373 5378 5384 5392 5399 5406 5413 5419 5426 5433 5439 5446 5453 5460 5467 5474 5481 5489 5496 5503 5509 5516 5523 5528 5534 5539 5545 5551 5557 5563 5569 5575
5279 5278 5278 5277 5276 5275 5274 5274 5273 5273 5272 5271 5271 5270 5270 5269 5268 5268 5267 5268 5268 5269 5270 5271 5272 5273 5275 5276 5278 5280 5283 5285 5288 5290 5293 5296 5299 5302 5305 5308 5312 5315 5318 5322 5326 5330 5335 5339 5344 5349 5353 5357 5361 5365 5369 5375 5382 5390 5397 5403 5410 5417 5423 5430 5437 5444 5451 5458 5465 5472 5479 5487 5493 5500 5506 5513 5519 5525 5530 5536 5542 5548 5554 5560 5566 5572
5280 5279 5278 5277 5276 5275 5274 5273 5273 5273 5272 5271 5270 5270 5270 5270 5270 5269 5268 5268 5268 5268 5269 5270 5271 5272 5273 5275 5277 5279 5281 5283 5286 5288 5291 5294 5297 5300 5303 5307 5310 5313 5317 5321 5325 5329 5333 5337 5341 5346 5350 5354 5358 5362 5367 5373 5380 5387 5393 5399 5406 5414 5421 5428 5434 5441 5448 5455 5463 5470 5478 5484 5490 5496 5503 5509 5515 5521 5527 5532 5538 5544 5552 5558 5563 5568
5280 5279 5278 5277 5276 5274 5273 5273 5272 5272 5271 5271 5270 5270 5269 5269 5269 5269 5269 5268 5268 5268 5268 5269 5269 5271 5272 5274 5276 5278 5280 5282 5284 5287 5289 5292 5295 5298 5302 5305 5308 5312 5316 5320 5324 5328 5332 5335 5338 5342 5346 5351 5356 5361 5366 5373 5378 5384 5390 5397 5405 5413 5419 5425 5431 5438 5445 5452 5460 5467 5474 5480 5486 5492 5499 5506 5512 5518 5523 5529 5535 5541 5548 5553 5558 5564
5280 5279 5278 5277 5275 5274 5273 5272 5271 5270 5270 5270 5270 5269 5269 5269 5268 5268 5268 5268 5268 5268 5268 5269 5269 5270 5272 5273 5275 5277 5279 5281 5283 5286 5288 5291 5294 5297 5301 5304 5308 5312 5316 5320 5324 5327 5330 5333 5337 5340 5345 5350 5355 5359 5365 5371 5377 5383 5388 5396 5403 5409 5415 5421 5428 5435 5442 5449 5457 5464 5470 5476 5482 5489 5497 5503 5509 5515 5521 5527 5533 5539 5545 5550 5555 5559
5281 5280 5278 5277 5276 5274 5272 5271 5270 5269 5269 5269 5269 5269 5269 5268 5268 5268 5268 5268 5268 5268 5268 5268 5269 5270 5272 5273 5275 5276 5278 5281 5283 5285 5288 5291 5294 5297 5300 5304 5308 5312 5316 5320 5324 5328 5330 5333 5336 5339 5344 5349 5355 5359 5364 5369 5375 5380 5387 5393 5398 5403 5409 5417 5425 5433 5440 5448 5455 5461 5466 5473 5479 5486 5494 5502 5508 5514 5520 5526 5532 5538 5543 5549 5553 5558
5282 5280 5279 5277 5275 5273 5272 5270 5269 5268 5268 5268 5268 5268 5268 5268 5268 5268 5268 5268 5268 5268 5268 5268 5269 5270 5272 5273 5275 5277 5278 5280 5283 5285 5288 5291 5294 5297 5300 5304 5308 5313 5318 5322 5325 5328 5330 5332 5335 5339 5344 5348 5353 5358 5364 5369 5374 5379 5386 5391 5396 5402 5409 5417 5425 5432 5439 5446 5453 5458 5464 5470 5478 5485 5492 5499 5506 5512 5518 5524 5530 5535 5541 5546 5552 5558
5282 5280 5279 5277 5275 5273 5272 5270 5269 5268 5267 5267 5267 5267 5267 5267 5267 5267 5267 5267 5267 5268 5268 5269 5270 5271 5272 5273 5275 5277 5279 5281 5283 5286 5288 5291 5294 5298 5302 5306 5310 5314 5318 5322 5324 5326 5328 5331 5335 5339 5344 5349 5353 5358 5364 5369 5374 5380 5386 5390 5394 5401 5409 5416 5423 5430 5437 5443 5449 5455 5461 5468 5475 5482 5489 5496 5503 5509 5515 5521 5526 5532 5538 5543 5550 5556
5282 5280 5279 5277 5276 5274 5272 5270 5269 5268 5267 5267 5267 5266 5266 5266 5266 5267 5267 5267 5267 5268 5268 5269 5270 5271 5272 5274 5275 5277 5279 5282 5284 5287 5290 5293 5296 5299 5303 5307 5311 5315 5318 5320 5322 5325 5328 5331 5335 5339 5344 5349 5355 5360 5366 5370 5374 5379 5383 5387 5392 5398 5405 5411 5418 5425 5432 5439 5446 5452 5459 5465 5472 5479 5487 5493 5500 5506 5512 5518 5524 5530 5535 5541 5548 5554
5282 5281 5279 5278 5276 5274 5273 5271 5269 5268 5268 5267 5267 5266 5266 5266 5266 5266 5267 5267 5267 5268 5268 5269 5270 5272 5273 5274 5276 5278 5280 5283 5286 5288 5292 5294 5298 5301 5304 5308 5312 5315 5317 5319 5321 5324 5328 5330 5334 5339 5345 5350 5356 5363 5368 5373 5376 5378 5380 5385 5391 5397 5403 5408 5416 5423 5430 5437 5443 5450 5457 5463 5470 5477 5484 5491 5497 5503 5510 5516 5521 5528 5533 5539 5545 5551
5283 5281 5279 5278 5276 5274 5273 5271 5270 5268 5268 5267 5267 5267 5266 5266 5266 5267 5267 5267 5268 5268 5269 5270 5271 5272 5273 5275 5277 5279 5282 5284 5287 5290 5293 5296 5299 5302 5306 5309 5312 5315 5317 5319 5321 5324 5327 5331 5335 5340 5345 5351 5358 5364 5370 5376 5379 5381 5383 5386 5391 5397 5403 5410 5417 5424 5430 5435 5441 5448 5455 5462 5468 5475 5481 5488 5494 5502 5509 5514 5520 5526 5532 5538 5543 5549
5283 5282 5280 5278 5277 5275 5273 5272 5270 5269 5268 5268 5268 5267 5267 5267 5267 5267 5268 5268 5268 5269 5270 5271 5272 5273 5275 5277 5278 5281 5283 5286 5288 5291 5293 5296 5300 5303 5307 5310 5313 5315 5318 5319 5322 5324 5327 5331 5336 5341 5345 5351 5357 5362 5368 5375 5380 5383 5385 5388 5392 5397 5403 5410 5416 5421 5426 5433 5440 5447 5453 5460 5467 5473 5479 5487 5494 5500 5507 5513 5519 5525 5530 5536 5542 5548
5284 5283 5281 5279 5277 5275 5274 5272 5271 5270 5269 5269 5268 5268 5268 5268 5268 5268 5268 5269 5269 5270 5271 5272 5273 5274 5276 5278 5280 5282 5284 5287 5289 5291 5294 5298 5301 5305 5308 5311 5314 5317 5319 5321 5323 5325 5328 5331 5336 5340 5345 5350 5355 5360 5365 5369 5374 5379 5384 5388 5392 5397 5403 5409 5413 5417 5423 5431 5439 5446 5452 5459 5465 5471 5477 5485 5492 5498 5504 5510 5517 5523 5528 5534 5540 5546
5285 5283 5282 5280 5278 5276 5275 5273 5272 5271 5270 5270 5269 5269 5269 5269 5269 5269 5269 5270 5270 5271 5272 5273 5274 5276 5278 5279 5281 5283 5285 5287 5289 5292 5296 5300 5303 5306 5308 5311 5314 5317 5320 5323 5324 5327 5329 5333 5337 5342 5346 5351 5355 5360 5364 5368 5371 5375 5380 5387 5393 5397 5401 5407 5413 5418 5425 5432 5438 5445 5451 5458 5464 5471 5478 5484 5490 5496 5502 5509 5515 5521 5526 5532 5538 5543
5286 5284 5283 5281 5279 5278 5276 5275 5273 5273 5272 5271 5271 5270 5270 5270 5270 5270 5271 5271 5272 5272 5273 5274 5276 5277 5279 5281 5282 5284 5286 5288 5291 5294 5298 5302 5304 5306 5308 5311 5313 5317 5320 5323 5326 5328 5330 5334 5339 5343 5348 5352 5356 5360 5365 5369 5372 5375 5380 5388 5393 5397 5401 5407 5413 5419 5426 5432 5438 5444 5451 5458 5464 5470 5477 5483 5488 5494 5501 5507 5513 5518 5524 5530 5536 5542